Location: M�nchen
(48.1404°N, 11.6043°E)
Time: 02:53:23
(UTC+01:00)

ISS - Pass Details

Date: 06 January 2018
Orbit: 402 x 407 km, 51.6° (Epoch: 23 January)

Event Time Altitude Azimuth Distance (km) Brightness Sun altitude
Exits shadow 05:12:56 17° 62° (ENE) 1,109 -1.0 -27.5°
Drops below altitude 10° 05:13:52 10° 66° (ENE) 1,471 -0.2 -27.3°
Sets 05:16:05 0° 71° (ENE) 2,374 1.1 -26.9°
